Location: Yecla
(38.6122°N, 1.1101°W)
Time: 14:58:06
(UTC+02:00)

ISS - Pass Details

Date: 24 May 2019
Orbit: 407 x 418 km, 51.6° (Epoch: 20 June)

Event Time Altitude Azimuth Distance (km) Brightness Sun altitude
Rises 22:32:04 0° 289° (WNW) 2,346 1.4 -13.0°
Reaches altitude 10° 22:35:21 10° 324° (NW) 1,489 0.4 -13.5°
Maximum altitude 22:36:35 12° 346° (NNW) 1,397 -0.3 -13.6°
Drops below altitude 10° 22:37:51 10° 8° (N) 1,493 -0.5 -13.8°
Sets 22:41:09 0° 43° (NE) 2,362 0.1 -14.3°
